User: anonymous   Login
Location: Unspecified
(0.0000°N, 0.0000°E)
Time: 19:52:43
(UTC+00:00)
Language:

Hamsat - Orbit

View from above orbital plane
View from above orbital plane
View from above satellite
View from above satellite

Ground track
Ground track

The orbit data is extracted from the following two-line orbital elements,

1 28650U 05017B   22222.33410785  .00001668  00000-0  17496-3 0  9996
2 28650  97.9057 190.9029 0023674  43.1858 317.1211 14.90726023936010
Epoch (UTC): 10 August 2022 08:01:06
Eccentricity: 0.0023674
inclination: 97.9057°
perigee height: 579 km
apogee height: 612 km
right ascension of ascending node: 190.9029°
argument of perigee: 43.1858°
revolutions per day: 14.90726023
mean anomaly at epoch: 317.1211°
orbit number at epoch: 93601

The dashed part of the orbit path shows where the satellite is in the earth's shadow,  

DLR